This is the latest recevied weather packets stored in our database for station/object KD8OZS. If no packets are shown the sender has not sent any weather packets the latest 10 day(s).
| Time | Temp. | Humidity | Pressure | Rain* | Wind** | Luminosity | Snow |
|---|---|---|---|---|---|---|---|
| 1777438186 | 10.56° C | 95% | 1005.7 hPa | 0 mm | - | 0 W/m² | - |
| 1777437882 | 11.11° C | 94% | 1005.6 hPa | 0 mm | - | 0 W/m² | - |
| 1777437579 | 11.11° C | 94% | 1005.7 hPa | 0 mm | - | 0 W/m² | - |
| 1777437275 | 11.11° C | 94% | 1005.6 hPa | 0 mm | - | 0 W/m² | - |
| 1777436972 | 11.11° C | 94% | 1005.5 hPa | 0 mm | - | 0 W/m² | - |
| 1777436668 | 11.11° C | 94% | 1005.4 hPa | 0 mm | - | 0 W/m² | - |
| 1777436365 | 11.11° C | 93% | 1005.2 hPa | 0 mm | - | 0 W/m² | - |
| 1777436060 | 11.11° C | 93% | 1005.6 hPa | 0 mm | - | 0 W/m² | - |
| 1777435757 | 11.67° C | 93% | 1005.5 hPa | 0 mm | - | 0 W/m² | - |
| 1777435454 | 11.67° C | 93% | 1005.6 hPa | 0 mm | - | 0 W/m² | - |
| 1777435149 | 11.11° C | 93% | 1005.7 hPa | 0 mm | - | 0 W/m² | - |
| 1777434844 | 11.11° C | 93% | 1005.7 hPa | 0 mm | - | 0 W/m² | - |
| 1777434543 | 11.67° C | 92% | 1006 hPa | 0 mm | - | 0 W/m² | - |
| 1777434240 | 11.67° C | 92% | 1005.9 hPa | 0 mm | - | 0 W/m² | - |
| 1777433937 | 11.67° C | 92% | 1006.1 hPa | 0 mm | - | 0 W/m² | - |
| 1777433634 | 11.67° C | 92% | 1006.1 hPa | 0 mm | - | 0 W/m² | - |
| 1777433330 | 11.67° C | 91% | 1006.3 hPa | 0 mm | - | 0 W/m² | - |
| 1777433026 | 11.67° C | 91% | 1006.2 hPa | 0 mm | - | 0 W/m² | - |
| 1777432721 | 11.67° C | 90% | 1006.5 hPa | 0 mm | - | 0 W/m² | - |
| 1777432417 | 11.67° C | 90% | 1006.4 hPa | 0 mm | - | 0 W/m² | - |
| 1777432113 | 12.22° C | 90% | 1006.4 hPa | 0 mm | - | 0 W/m² | - |
| 1777431807 | 12.22° C | 89% | 1006.4 hPa | 0 mm | - | 0 W/m² | - |
| 1777431504 | 12.22° C | 89% | 1006.5 hPa | 0 mm | - | 0 W/m² | - |
| 1777431200 | 12.78° C | 89% | 1006.5 hPa | 0 mm | - | 0 W/m² | - |
| 1777430896 | 12.78° C | 88% | 1006.3 hPa | 0 mm | - | 0 W/m² | - |
* Rain latest hour (hover to see other rain measurements)
** Current wind speed in m/s (hover to see current wind gust speed)